Regional Weather Roundup
Issued by NWS Charleston, SC

Current Version | Previous Version | Graphics & Text | Print | Product List | Glossary On
Versions: 1 2 3 4 5 6 7 8 9 10 11 12 13 14 15 16 17 18 19 20 21 22 23 24 25 26 27 28 29 30 31 32 33 34 35 36 37 38 39 40 41 42 43 44 45 46 47 48 49 50
000
ASUS42 KCHS 231727
RWRCHS

Regional Weather Roundup
National Weather Service Charleston SC
1200 PM EST FRI FEB 23 2018

NOTE: "fair" indicates few or no clouds below 12,000 feet with no
significant weather and/or obstructions to visibility.

Not all stations are quality controlled. Use data with caution,
especially dewpoint observations.

SCZ027-030-031-034>040-042>050-231800-
...Southeast South Carolina...

CITY           SKY/WX    TMP DP  RH WIND       PRES   REMARKS
N Charleston   PTSUNNY   75  64  68 SE9       30.43F
Waterfront Prk   N/A     67  65  93 N6        30.29F
Mount Pleasant FAIR      73  64  73 CALM      30.43F
Johns Island   PTSUNNY   77  66  69 VRB5      30.42F
Pinopolis        N/A     64  63  94 N7        30.35F
Moncks Corner  CLOUDY    75  59  57 CALM      30.42F
Summerville    PTSUNNY   77  61  57 S6        30.43F
Beaufort MCAS  FAIR      79  65  62 SE7       30.42F
Beaufort Arpt  FAIR      77  63  61 SW5       30.41F HAZE
Hilton Head Is MOSUNNY   75  64  69 S3        30.44F
Walterboro     FAIR      77  61  57 S7        30.42F
Allendale      FAIR      75  59  57 S5        30.41F

...Southern Midlands and Pee Dee...

CITY           SKY/WX    TMP DP  RH WIND       PRES   REMARKS
Georgetown     FAIR      75  66  73 SE9       30.44F
Kingstree      PTSUNNY   77  63  61 CALM      30.42F
Orangeburg       N/A    N/A N/A N/A MISG        N/A
Barnwell         N/A     75  64  69 CALM      30.43F
Aiken          PTSUNNY   73  59  60 SW7       30.46F HAZE
Manning        FAIR      73  46  38 MISG      30.43F
Columbia       CLOUDY    75  59  57 VRB5      30.42F
Sumter         CLOUDY    76  61  59 W6        30.42F
Florence       FAIR      76  60  57 SW9       30.44F
Myrtle Beach   FAIR      73  66  78 SE9       30.46F
N Myrtle Beach FAIR      72  65  78 SE8       30.44F

$$

GAZ063-065-086>088-099>101-113>116-118-119-134>141-150-231800-
...Southeast Georgia...

CITY           SKY/WX    TMP DP  RH WIND       PRES   REMARKS
Savannah Arpt  PTSUNNY   76  61  59 E3        30.42F
Hunter AAF     FAIR      78  74  90 SE7       30.39F
Fort Stewart   PTSUNNY   77  62  58 SE5       30.39F
Statesboro     FAIR      76  59  55 CALM      30.42F
Sylvania       PTSUNNY   76  66  70 S5        30.43F
Claxton        FAIR      80  63  56 E7        30.41F

...CSRA, Central and far Southeast Georgia...

CITY           SKY/WX    TMP DP  RH WIND       PRES   REMARKS
Thomson        CLOUDY    72  64  74 SW7       30.48F
Augusta-Bush   PTSUNNY   75  62  64 SW8       30.42F
Augusta-Daniel PTSUNNY   74  63  68 SW5       30.44F
Swainsboro     PTSUNNY   73  64  73 SE5       30.43F
Vidalia        PTSUNNY   77  63  61 S6        30.41F
Eastman        PTSUNNY   80  51  36 SW7       30.43F
Hazlehurst     PTSUNNY   78  58  50 SE5       30.40F
Alma           PTSUNNY   77  61  57 S7        30.40F
Waycross       FAIR      81  58  45 SW12      30.39F
Jesup          NOT AVBL
Baxley         PTSUNNY   75  61  60 SE3       30.39F
Brunswick      CLOUDY    79  63  57 SE9       30.41F
Saint Simons   FAIR      75  66  73 SE7       30.42S

$$

SCZ027-028-034-036>038-045-046-048>050-GAZ119-141-231800-
...Lake and Supplemental Coastal Observations...

STATION/POSITION TIME  TEMP    WIND        PRES    WAVE   SWELL
                       AIR SEA DIR/SP/G            HT/PER HT/PER/DIR
                 (UTC) (F)     (DEG/KT/KT) (MB)    (FT/S) (FT/S/D)
Winyah Bay       1645   66      80/  7     1031.0F
Lake Murray      1630   68     290/  2/  3 1029.8F
ACE Basin NERRS  1645   76     180/  2     1030.0F
Fort Pulaski     1700   67 62   90/  8/  8 1030.7
Sapelo Island    1700   78     140/  7     1030.0

$$

ANZ835-935-AMZ111-154-330-350-352-354-370-450-454-472-231800-
...C-MAN and Buoy Observations...

STATION/POSITION TIME  TEMP    WIND        PRES    WAVE   SWELL
                       AIR SEA DIR/SP/G            HT/PER HT/PER/DIR
                 (UTC) (F)     (DEG/KT/KT) (MB)    (FT/S) (FT/S/D)
Buoy 41004       1710   73 68   CALM  /  2 1030.3
Buoy 41008       1650   64 60   20/  4/  6 1029.7F   4/ 9   3/130/ 9
Folly Beach CMAN 1700   69      60/  3/  4 1031.0F
Capers Nearshore 1708   66 62   20/  2/  6 1030.2F
Fripp Nearshore  1708   66 62   60/  4/  6 1030.6F


STATION/POSITION TIME  TEMP    WIND        PRES    WAVE   SWELL
                       AIR SEA DIR/SP/G            HT/PER HT/PER/DIR
                 (UTC) (F)     (DEG/KT/KT) (MB)    (FT/S) (FT/S/D)
5E St. Marys GA  1700      67                N/A     4/ 9   2/ 90/14
Frying Pan Buoy  1710   71 71   50/  6/  8 1030.6
Buoy 41025       1710   63 73   20/  6/ 10 1031.8
Cape Lookout NC  1700           70/  8/  9 1032.0F
Buoy 41002       1650   72 73  120/ 10/ 12 1031.8F   5/ 9   5/120/ 9
Buoy 41010       NOT AVBL
St Augustine FL  1700   68 67   70/  8/  9 1029.6F


$$




USA.gov is the U.S. government's official web portal to all federal, state and local government web resources and services.